<?xml version="1.0" encoding="UTF-8" standalone="no" ?>
<gpx xmlns="http://www.topografix.com/GPX/1/1" xmlns:xsi="http://www.w3.org/2001/XMLSchema-instance" xsi:schemaLocation="http://www.topografix.com/GPX/1/1 http://www.topografix.com/GPX/1/1/gpx.xsd" version="1.1" creator="VisuGPX - https://www.visugpx.com">
  <metadata>
    <name>Vernoscoise-Vernosc 2022 Petit Parcourt</name>
  </metadata>
  <trk>
    <name><![CDATA[14394663-Vernosc 2022 Petit Parcourt]]></name>
    <trkseg>
      <trkpt lat="45.22451" lon="4.71861">
        <ele>393</ele>
        <time>2022-04-09T10:26:44Z</time>
      </trkpt>
      <trkpt lat="45.22454" lon="4.71838">
        <ele>394</ele>
        <time>2022-04-09T10:26:48Z</time>
      </trkpt>
      <trkpt lat="45.22476" lon="4.71808">
        <ele>393</ele>
        <time>2022-04-09T10:26:55Z</time>
      </trkpt>
      <trkpt lat="45.22422" lon="4.71781">
        <ele>394</ele>
        <time>2022-04-09T10:27:08Z</time>
      </trkpt>
      <trkpt lat="45.22369" lon="4.71734">
        <ele>395</ele>
        <time>2022-04-09T10:27:23Z</time>
      </trkpt>
      <trkpt lat="45.22279" lon="4.71684">
        <ele>400</ele>
        <time>2022-04-09T10:27:46Z</time>
      </trkpt>
      <trkpt lat="45.22229" lon="4.7167">
        <ele>402</ele>
        <time>2022-04-09T10:27:57Z</time>
      </trkpt>
      <trkpt lat="45.22208" lon="4.71668">
        <ele>401</ele>
        <time>2022-04-09T10:28:02Z</time>
      </trkpt>
      <trkpt lat="45.2217" lon="4.7166">
        <ele>400</ele>
        <time>2022-04-09T10:28:11Z</time>
      </trkpt>
      <trkpt lat="45.22129" lon="4.71644">
        <ele>399</ele>
        <time>2022-04-09T10:28:21Z</time>
      </trkpt>
      <trkpt lat="45.22058" lon="4.71602">
        <ele>399</ele>
        <time>2022-04-09T10:28:39Z</time>
      </trkpt>
      <trkpt lat="45.22031" lon="4.71583">
        <ele>399</ele>
        <time>2022-04-09T10:28:46Z</time>
      </trkpt>
      <trkpt lat="45.22006" lon="4.71556">
        <ele>399</ele>
        <time>2022-04-09T10:28:54Z</time>
      </trkpt>
      <trkpt lat="45.21947" lon="4.71521">
        <ele>398</ele>
        <time>2022-04-09T10:29:08Z</time>
      </trkpt>
      <trkpt lat="45.21932" lon="4.71509">
        <ele>398</ele>
        <time>2022-04-09T10:29:13Z</time>
      </trkpt>
      <trkpt lat="45.21921" lon="4.71492">
        <ele>398</ele>
        <time>2022-04-09T10:29:16Z</time>
      </trkpt>
      <trkpt lat="45.21918" lon="4.71452">
        <ele>398</ele>
        <time>2022-04-09T10:29:23Z</time>
      </trkpt>
      <trkpt lat="45.21923" lon="4.71367">
        <ele>398</ele>
        <time>2022-04-09T10:29:37Z</time>
      </trkpt>
      <trkpt lat="45.21926" lon="4.71346">
        <ele>398</ele>
        <time>2022-04-09T10:29:40Z</time>
      </trkpt>
      <trkpt lat="45.21933" lon="4.71326">
        <ele>399</ele>
        <time>2022-04-09T10:29:44Z</time>
      </trkpt>
      <trkpt lat="45.21949" lon="4.71293">
        <ele>400</ele>
        <time>2022-04-09T10:29:51Z</time>
      </trkpt>
      <trkpt lat="45.21967" lon="4.71266">
        <ele>402</ele>
        <time>2022-04-09T10:29:57Z</time>
      </trkpt>
      <trkpt lat="45.22027" lon="4.71219">
        <ele>403</ele>
        <time>2022-04-09T10:30:13Z</time>
      </trkpt>
      <trkpt lat="45.22044" lon="4.71192">
        <ele>402</ele>
        <time>2022-04-09T10:30:19Z</time>
      </trkpt>
      <trkpt lat="45.22061" lon="4.71174">
        <ele>402</ele>
        <time>2022-04-09T10:30:24Z</time>
      </trkpt>
      <trkpt lat="45.22067" lon="4.7116">
        <ele>402</ele>
        <time>2022-04-09T10:30:26Z</time>
      </trkpt>
      <trkpt lat="45.22058" lon="4.7115">
        <ele>401</ele>
        <time>2022-04-09T10:30:29Z</time>
      </trkpt>
      <trkpt lat="45.21986" lon="4.71126">
        <ele>396</ele>
        <time>2022-04-09T10:30:46Z</time>
      </trkpt>
      <trkpt lat="45.21951" lon="4.71077">
        <ele>392</ele>
        <time>2022-04-09T10:30:58Z</time>
      </trkpt>
      <trkpt lat="45.21942" lon="4.71048">
        <ele>391</ele>
        <time>2022-04-09T10:31:03Z</time>
      </trkpt>
      <trkpt lat="45.21937" lon="4.70932">
        <ele>387</ele>
        <time>2022-04-09T10:31:22Z</time>
      </trkpt>
      <trkpt lat="45.21931" lon="4.70909">
        <ele>387</ele>
        <time>2022-04-09T10:31:26Z</time>
      </trkpt>
      <trkpt lat="45.21914" lon="4.70908">
        <ele>388</ele>
        <time>2022-04-09T10:31:30Z</time>
      </trkpt>
      <trkpt lat="45.21888" lon="4.70929">
        <ele>389</ele>
        <time>2022-04-09T10:31:37Z</time>
      </trkpt>
      <trkpt lat="45.21843" lon="4.70959">
        <ele>391</ele>
        <time>2022-04-09T10:31:49Z</time>
      </trkpt>
      <trkpt lat="45.21777" lon="4.71016">
        <ele>391</ele>
        <time>2022-04-09T10:32:07Z</time>
      </trkpt>
      <trkpt lat="45.21747" lon="4.7093">
        <ele>390</ele>
        <time>2022-04-09T10:32:23Z</time>
      </trkpt>
      <trkpt lat="45.21735" lon="4.70902">
        <ele>391</ele>
        <time>2022-04-09T10:32:28Z</time>
      </trkpt>
      <trkpt lat="45.21716" lon="4.70896">
        <ele>391</ele>
        <time>2022-04-09T10:32:33Z</time>
      </trkpt>
      <trkpt lat="45.21667" lon="4.7091">
        <ele>391</ele>
        <time>2022-04-09T10:32:44Z</time>
      </trkpt>
      <trkpt lat="45.21676" lon="4.70855">
        <ele>392</ele>
        <time>2022-04-09T10:32:54Z</time>
      </trkpt>
      <trkpt lat="45.21672" lon="4.70775">
        <ele>393</ele>
        <time>2022-04-09T10:33:07Z</time>
      </trkpt>
      <trkpt lat="45.21682" lon="4.70756">
        <ele>393</ele>
        <time>2022-04-09T10:33:11Z</time>
      </trkpt>
      <trkpt lat="45.21705" lon="4.70763">
        <ele>393</ele>
        <time>2022-04-09T10:33:16Z</time>
      </trkpt>
      <trkpt lat="45.21746" lon="4.7074">
        <ele>394</ele>
        <time>2022-04-09T10:33:26Z</time>
      </trkpt>
      <trkpt lat="45.2175" lon="4.70711">
        <ele>394</ele>
        <time>2022-04-09T10:33:31Z</time>
      </trkpt>
      <trkpt lat="45.21766" lon="4.70676">
        <ele>394</ele>
        <time>2022-04-09T10:33:38Z</time>
      </trkpt>
      <trkpt lat="45.21768" lon="4.70652">
        <ele>394</ele>
        <time>2022-04-09T10:33:42Z</time>
      </trkpt>
      <trkpt lat="45.21767" lon="4.70575">
        <ele>394</ele>
        <time>2022-04-09T10:33:55Z</time>
      </trkpt>
      <trkpt lat="45.21761" lon="4.7051">
        <ele>396</ele>
        <time>2022-04-09T10:34:06Z</time>
      </trkpt>
      <trkpt lat="45.21759" lon="4.70447">
        <ele>396</ele>
        <time>2022-04-09T10:34:16Z</time>
      </trkpt>
      <trkpt lat="45.21752" lon="4.70426">
        <ele>397</ele>
        <time>2022-04-09T10:34:20Z</time>
      </trkpt>
      <trkpt lat="45.21739" lon="4.70368">
        <ele>391</ele>
        <time>2022-04-09T10:34:30Z</time>
      </trkpt>
      <trkpt lat="45.21724" lon="4.70336">
        <ele>388</ele>
        <time>2022-04-09T10:34:36Z</time>
      </trkpt>
      <trkpt lat="45.21709" lon="4.70317">
        <ele>385</ele>
        <time>2022-04-09T10:34:41Z</time>
      </trkpt>
      <trkpt lat="45.21682" lon="4.70296">
        <ele>383</ele>
        <time>2022-04-09T10:34:48Z</time>
      </trkpt>
      <trkpt lat="45.21647" lon="4.70244">
        <ele>375</ele>
        <time>2022-04-09T10:35:00Z</time>
      </trkpt>
      <trkpt lat="45.21634" lon="4.70243">
        <ele>373</ele>
        <time>2022-04-09T10:35:03Z</time>
      </trkpt>
      <trkpt lat="45.21612" lon="4.70248">
        <ele>372</ele>
        <time>2022-04-09T10:35:08Z</time>
      </trkpt>
      <trkpt lat="45.21588" lon="4.70286">
        <ele>376</ele>
        <time>2022-04-09T10:35:16Z</time>
      </trkpt>
      <trkpt lat="45.21577" lon="4.70292">
        <ele>375</ele>
        <time>2022-04-09T10:35:19Z</time>
      </trkpt>
      <trkpt lat="45.2157" lon="4.70309">
        <ele>376</ele>
        <time>2022-04-09T10:35:22Z</time>
      </trkpt>
      <trkpt lat="45.21564" lon="4.70314">
        <ele>376</ele>
        <time>2022-04-09T10:35:24Z</time>
      </trkpt>
      <trkpt lat="45.21552" lon="4.70341">
        <ele>378</ele>
        <time>2022-04-09T10:35:29Z</time>
      </trkpt>
      <trkpt lat="45.21539" lon="4.70354">
        <ele>377</ele>
        <time>2022-04-09T10:35:33Z</time>
      </trkpt>
      <trkpt lat="45.21536" lon="4.70393">
        <ele>381</ele>
        <time>2022-04-09T10:35:40Z</time>
      </trkpt>
      <trkpt lat="45.21537" lon="4.70423">
        <ele>384</ele>
        <time>2022-04-09T10:35:44Z</time>
      </trkpt>
      <trkpt lat="45.21546" lon="4.70452">
        <ele>386</ele>
        <time>2022-04-09T10:35:50Z</time>
      </trkpt>
      <trkpt lat="45.2156" lon="4.70528">
        <ele>390</ele>
        <time>2022-04-09T10:36:03Z</time>
      </trkpt>
      <trkpt lat="45.21572" lon="4.70554">
        <ele>391</ele>
        <time>2022-04-09T10:36:08Z</time>
      </trkpt>
      <trkpt lat="45.21568" lon="4.70557">
        <ele>390</ele>
        <time>2022-04-09T10:36:09Z</time>
      </trkpt>
      <trkpt lat="45.21513" lon="4.70502">
        <ele>383</ele>
        <time>2022-04-09T10:36:24Z</time>
      </trkpt>
      <trkpt lat="45.21485" lon="4.70491">
        <ele>378</ele>
        <time>2022-04-09T10:36:31Z</time>
      </trkpt>
      <trkpt lat="45.21464" lon="4.70466">
        <ele>374</ele>
        <time>2022-04-09T10:36:38Z</time>
      </trkpt>
      <trkpt lat="45.21456" lon="4.70427">
        <ele>373</ele>
        <time>2022-04-09T10:36:44Z</time>
      </trkpt>
      <trkpt lat="45.2144" lon="4.70411">
        <ele>370</ele>
        <time>2022-04-09T10:36:49Z</time>
      </trkpt>
      <trkpt lat="45.21413" lon="4.70375">
        <ele>362</ele>
        <time>2022-04-09T10:36:58Z</time>
      </trkpt>
      <trkpt lat="45.21405" lon="4.70359">
        <ele>359</ele>
        <time>2022-04-09T10:37:01Z</time>
      </trkpt>
      <trkpt lat="45.21403" lon="4.70342">
        <ele>357</ele>
        <time>2022-04-09T10:37:04Z</time>
      </trkpt>
      <trkpt lat="45.21394" lon="4.70314">
        <ele>351</ele>
        <time>2022-04-09T10:37:09Z</time>
      </trkpt>
      <trkpt lat="45.21374" lon="4.70303">
        <ele>347</ele>
        <time>2022-04-09T10:37:14Z</time>
      </trkpt>
      <trkpt lat="45.21356" lon="4.70313">
        <ele>349</ele>
        <time>2022-04-09T10:37:18Z</time>
      </trkpt>
      <trkpt lat="45.21336" lon="4.70337">
        <ele>353</ele>
        <time>2022-04-09T10:37:24Z</time>
      </trkpt>
      <trkpt lat="45.21324" lon="4.7037">
        <ele>351</ele>
        <time>2022-04-09T10:37:30Z</time>
      </trkpt>
      <trkpt lat="45.21325" lon="4.70414">
        <ele>353</ele>
        <time>2022-04-09T10:37:38Z</time>
      </trkpt>
      <trkpt lat="45.21309" lon="4.70433">
        <ele>349</ele>
        <time>2022-04-09T10:37:43Z</time>
      </trkpt>
      <trkpt lat="45.21268" lon="4.70443">
        <ele>340</ele>
        <time>2022-04-09T10:37:52Z</time>
      </trkpt>
      <trkpt lat="45.2126" lon="4.70466">
        <ele>340</ele>
        <time>2022-04-09T10:37:56Z</time>
      </trkpt>
      <trkpt lat="45.21257" lon="4.70492">
        <ele>342</ele>
        <time>2022-04-09T10:38:01Z</time>
      </trkpt>
      <trkpt lat="45.21259" lon="4.70514">
        <ele>344</ele>
        <time>2022-04-09T10:38:04Z</time>
      </trkpt>
      <trkpt lat="45.21264" lon="4.70529">
        <ele>345</ele>
        <time>2022-04-09T10:38:07Z</time>
      </trkpt>
      <trkpt lat="45.21263" lon="4.70537">
        <ele>346</ele>
        <time>2022-04-09T10:38:09Z</time>
      </trkpt>
      <trkpt lat="45.21261" lon="4.70532">
        <ele>345</ele>
        <time>2022-04-09T10:38:09Z</time>
      </trkpt>
      <trkpt lat="45.21251" lon="4.70523">
        <ele>343</ele>
        <time>2022-04-09T10:38:12Z</time>
      </trkpt>
      <trkpt lat="45.21241" lon="4.70509">
        <ele>339</ele>
        <time>2022-04-09T10:38:16Z</time>
      </trkpt>
      <trkpt lat="45.21237" lon="4.70486">
        <ele>335</ele>
        <time>2022-04-09T10:38:19Z</time>
      </trkpt>
      <trkpt lat="45.21228" lon="4.70491">
        <ele>333</ele>
        <time>2022-04-09T10:38:22Z</time>
      </trkpt>
      <trkpt lat="45.21221" lon="4.70508">
        <ele>332</ele>
        <time>2022-04-09T10:38:25Z</time>
      </trkpt>
      <trkpt lat="45.21217" lon="4.70457">
        <ele>323</ele>
        <time>2022-04-09T10:38:33Z</time>
      </trkpt>
      <trkpt lat="45.21207" lon="4.70467">
        <ele>320</ele>
        <time>2022-04-09T10:38:36Z</time>
      </trkpt>
      <trkpt lat="45.21194" lon="4.70471">
        <ele>316</ele>
        <time>2022-04-09T10:38:39Z</time>
      </trkpt>
      <trkpt lat="45.21201" lon="4.70414">
        <ele>308</ele>
        <time>2022-04-09T10:38:49Z</time>
      </trkpt>
      <trkpt lat="45.21212" lon="4.70372">
        <ele>305</ele>
        <time>2022-04-09T10:38:56Z</time>
      </trkpt>
      <trkpt lat="45.21202" lon="4.70368">
        <ele>299</ele>
        <time>2022-04-09T10:38:59Z</time>
      </trkpt>
      <trkpt lat="45.2119" lon="4.70388">
        <ele>297</ele>
        <time>2022-04-09T10:39:03Z</time>
      </trkpt>
      <trkpt lat="45.21173" lon="4.70406">
        <ele>292</ele>
        <time>2022-04-09T10:39:08Z</time>
      </trkpt>
      <trkpt lat="45.21164" lon="4.70425">
        <ele>293</ele>
        <time>2022-04-09T10:39:12Z</time>
      </trkpt>
      <trkpt lat="45.21151" lon="4.70443">
        <ele>291</ele>
        <time>2022-04-09T10:39:16Z</time>
      </trkpt>
      <trkpt lat="45.21134" lon="4.70457">
        <ele>287</ele>
        <time>2022-04-09T10:39:21Z</time>
      </trkpt>
      <trkpt lat="45.21119" lon="4.70457">
        <ele>281</ele>
        <time>2022-04-09T10:39:24Z</time>
      </trkpt>
      <trkpt lat="45.21072" lon="4.70503">
        <ele>275</ele>
        <time>2022-04-09T10:39:37Z</time>
      </trkpt>
      <trkpt lat="45.21052" lon="4.7053">
        <ele>274</ele>
        <time>2022-04-09T10:39:44Z</time>
      </trkpt>
      <trkpt lat="45.21038" lon="4.70528">
        <ele>268</ele>
        <time>2022-04-09T10:39:47Z</time>
      </trkpt>
      <trkpt lat="45.21043" lon="4.70516">
        <ele>268</ele>
        <time>2022-04-09T10:39:49Z</time>
      </trkpt>
      <trkpt lat="45.21069" lon="4.70477">
        <ele>267</ele>
        <time>2022-04-09T10:39:58Z</time>
      </trkpt>
      <trkpt lat="45.21081" lon="4.70437">
        <ele>260</ele>
        <time>2022-04-09T10:40:05Z</time>
      </trkpt>
      <trkpt lat="45.21082" lon="4.70405">
        <ele>253</ele>
        <time>2022-04-09T10:40:11Z</time>
      </trkpt>
      <trkpt lat="45.21076" lon="4.70411">
        <ele>253</ele>
        <time>2022-04-09T10:40:12Z</time>
      </trkpt>
      <trkpt lat="45.21072" lon="4.70424">
        <ele>255</ele>
        <time>2022-04-09T10:40:15Z</time>
      </trkpt>
      <trkpt lat="45.21069" lon="4.70415">
        <ele>253</ele>
        <time>2022-04-09T10:40:16Z</time>
      </trkpt>
      <trkpt lat="45.21099" lon="4.70349">
        <ele>251</ele>
        <time>2022-04-09T10:40:29Z</time>
      </trkpt>
      <trkpt lat="45.2109" lon="4.70331">
        <ele>246</ele>
        <time>2022-04-09T10:40:33Z</time>
      </trkpt>
      <trkpt lat="45.21073" lon="4.7031">
        <ele>249</ele>
        <time>2022-04-09T10:40:38Z</time>
      </trkpt>
      <trkpt lat="45.21061" lon="4.70297">
        <ele>254</ele>
        <time>2022-04-09T10:40:42Z</time>
      </trkpt>
      <trkpt lat="45.21052" lon="4.70292">
        <ele>257</ele>
        <time>2022-04-09T10:40:44Z</time>
      </trkpt>
      <trkpt lat="45.21048" lon="4.70297">
        <ele>257</ele>
        <time>2022-04-09T10:40:45Z</time>
      </trkpt>
      <trkpt lat="45.21044" lon="4.70326">
        <ele>254</ele>
        <time>2022-04-09T10:40:50Z</time>
      </trkpt>
      <trkpt lat="45.21039" lon="4.70335">
        <ele>254</ele>
        <time>2022-04-09T10:40:52Z</time>
      </trkpt>
      <trkpt lat="45.2103" lon="4.70344">
        <ele>255</ele>
        <time>2022-04-09T10:40:54Z</time>
      </trkpt>
      <trkpt lat="45.21021" lon="4.70371">
        <ele>254</ele>
        <time>2022-04-09T10:40:59Z</time>
      </trkpt>
      <trkpt lat="45.21003" lon="4.70412">
        <ele>248</ele>
        <time>2022-04-09T10:41:07Z</time>
      </trkpt>
      <trkpt lat="45.2099" lon="4.70415">
        <ele>250</ele>
        <time>2022-04-09T10:41:10Z</time>
      </trkpt>
      <trkpt lat="45.20962" lon="4.7041">
        <ele>258</ele>
        <time>2022-04-09T10:41:17Z</time>
      </trkpt>
      <trkpt lat="45.20962" lon="4.70403">
        <ele>259</ele>
        <time>2022-04-09T10:41:18Z</time>
      </trkpt>
      <trkpt lat="45.20972" lon="4.70397">
        <ele>258</ele>
        <time>2022-04-09T10:41:21Z</time>
      </trkpt>
      <trkpt lat="45.2098" lon="4.70386">
        <ele>258</ele>
        <time>2022-04-09T10:41:23Z</time>
      </trkpt>
      <trkpt lat="45.20989" lon="4.70356">
        <ele>262</ele>
        <time>2022-04-09T10:41:29Z</time>
      </trkpt>
      <trkpt lat="45.20996" lon="4.70309">
        <ele>269</ele>
        <time>2022-04-09T10:41:37Z</time>
      </trkpt>
      <trkpt lat="45.20993" lon="4.70266">
        <ele>279</ele>
        <time>2022-04-09T10:41:44Z</time>
      </trkpt>
      <trkpt lat="45.20989" lon="4.70248">
        <ele>284</ele>
        <time>2022-04-09T10:41:47Z</time>
      </trkpt>
      <trkpt lat="45.20985" lon="4.70245">
        <ele>285</ele>
        <time>2022-04-09T10:41:48Z</time>
      </trkpt>
      <trkpt lat="45.20986" lon="4.70239">
        <ele>286</ele>
        <time>2022-04-09T10:41:49Z</time>
      </trkpt>
      <trkpt lat="45.20982" lon="4.70231">
        <ele>289</ele>
        <time>2022-04-09T10:41:50Z</time>
      </trkpt>
      <trkpt lat="45.20973" lon="4.70226">
        <ele>291</ele>
        <time>2022-04-09T10:41:53Z</time>
      </trkpt>
      <trkpt lat="45.20979" lon="4.70238">
        <ele>288</ele>
        <time>2022-04-09T10:41:55Z</time>
      </trkpt>
      <trkpt lat="45.20975" lon="4.70256">
        <ele>285</ele>
        <time>2022-04-09T10:41:58Z</time>
      </trkpt>
      <trkpt lat="45.20977" lon="4.70266">
        <ele>283</ele>
        <time>2022-04-09T10:42:00Z</time>
      </trkpt>
      <trkpt lat="45.20972" lon="4.70278">
        <ele>281</ele>
        <time>2022-04-09T10:42:02Z</time>
      </trkpt>
      <trkpt lat="45.20959" lon="4.70298">
        <ele>281</ele>
        <time>2022-04-09T10:42:07Z</time>
      </trkpt>
      <trkpt lat="45.20951" lon="4.70301">
        <ele>282</ele>
        <time>2022-04-09T10:42:09Z</time>
      </trkpt>
      <trkpt lat="45.20938" lon="4.70299">
        <ele>286</ele>
        <time>2022-04-09T10:42:12Z</time>
      </trkpt>
      <trkpt lat="45.2092" lon="4.70292">
        <ele>292</ele>
        <time>2022-04-09T10:42:16Z</time>
      </trkpt>
      <trkpt lat="45.20909" lon="4.70294">
        <ele>294</ele>
        <time>2022-04-09T10:42:19Z</time>
      </trkpt>
      <trkpt lat="45.20887" lon="4.7031">
        <ele>299</ele>
        <time>2022-04-09T10:42:24Z</time>
      </trkpt>
      <trkpt lat="45.20874" lon="4.70325">
        <ele>301</ele>
        <time>2022-04-09T10:42:28Z</time>
      </trkpt>
      <trkpt lat="45.20859" lon="4.70336">
        <ele>304</ele>
        <time>2022-04-09T10:42:32Z</time>
      </trkpt>
      <trkpt lat="45.20846" lon="4.70367">
        <ele>303</ele>
        <time>2022-04-09T10:42:38Z</time>
      </trkpt>
      <trkpt lat="45.2084" lon="4.70371">
        <ele>304</ele>
        <time>2022-04-09T10:42:40Z</time>
      </trkpt>
      <trkpt lat="45.20834" lon="4.70348">
        <ele>310</ele>
        <time>2022-04-09T10:42:44Z</time>
      </trkpt>
      <trkpt lat="45.20834" lon="4.70327">
        <ele>312</ele>
        <time>2022-04-09T10:42:47Z</time>
      </trkpt>
      <trkpt lat="45.20845" lon="4.70297">
        <ele>312</ele>
        <time>2022-04-09T10:42:53Z</time>
      </trkpt>
      <trkpt lat="45.2085" lon="4.70276">
        <ele>313</ele>
        <time>2022-04-09T10:42:56Z</time>
      </trkpt>
      <trkpt lat="45.2085" lon="4.70253">
        <ele>315</ele>
        <time>2022-04-09T10:43:00Z</time>
      </trkpt>
      <trkpt lat="45.20843" lon="4.70228">
        <ele>319</ele>
        <time>2022-04-09T10:43:05Z</time>
      </trkpt>
      <trkpt lat="45.20836" lon="4.70213">
        <ele>322</ele>
        <time>2022-04-09T10:43:08Z</time>
      </trkpt>
      <trkpt lat="45.20832" lon="4.70186">
        <ele>324</ele>
        <time>2022-04-09T10:43:12Z</time>
      </trkpt>
      <trkpt lat="45.20818" lon="4.70139">
        <ele>327</ele>
        <time>2022-04-09T10:43:21Z</time>
      </trkpt>
      <trkpt lat="45.20806" lon="4.70127">
        <ele>328</ele>
        <time>2022-04-09T10:43:24Z</time>
      </trkpt>
      <trkpt lat="45.20794" lon="4.70121">
        <ele>330</ele>
        <time>2022-04-09T10:43:27Z</time>
      </trkpt>
      <trkpt lat="45.20764" lon="4.7012">
        <ele>334</ele>
        <time>2022-04-09T10:43:34Z</time>
      </trkpt>
      <trkpt lat="45.2073" lon="4.70107">
        <ele>339</ele>
        <time>2022-04-09T10:43:42Z</time>
      </trkpt>
      <trkpt lat="45.20715" lon="4.70095">
        <ele>342</ele>
        <time>2022-04-09T10:43:46Z</time>
      </trkpt>
      <trkpt lat="45.20692" lon="4.70071">
        <ele>345</ele>
        <time>2022-04-09T10:43:53Z</time>
      </trkpt>
      <trkpt lat="45.20689" lon="4.70081">
        <ele>346</ele>
        <time>2022-04-09T10:43:55Z</time>
      </trkpt>
      <trkpt lat="45.20687" lon="4.7011">
        <ele>346</ele>
        <time>2022-04-09T10:43:59Z</time>
      </trkpt>
      <trkpt lat="45.20684" lon="4.70118">
        <ele>346</ele>
        <time>2022-04-09T10:44:01Z</time>
      </trkpt>
      <trkpt lat="45.20678" lon="4.70119">
        <ele>347</ele>
        <time>2022-04-09T10:44:02Z</time>
      </trkpt>
      <trkpt lat="45.20664" lon="4.70092">
        <ele>349</ele>
        <time>2022-04-09T10:44:08Z</time>
      </trkpt>
      <trkpt lat="45.20653" lon="4.70082">
        <ele>351</ele>
        <time>2022-04-09T10:44:11Z</time>
      </trkpt>
      <trkpt lat="45.20625" lon="4.70045">
        <ele>356</ele>
        <time>2022-04-09T10:44:20Z</time>
      </trkpt>
      <trkpt lat="45.20608" lon="4.70008">
        <ele>359</ele>
        <time>2022-04-09T10:44:27Z</time>
      </trkpt>
      <trkpt lat="45.20613" lon="4.69996">
        <ele>358</ele>
        <time>2022-04-09T10:44:29Z</time>
      </trkpt>
      <trkpt lat="45.20613" lon="4.69998">
        <ele>358</ele>
        <time>2022-04-09T10:44:30Z</time>
      </trkpt>
      <trkpt lat="45.20608" lon="4.70002">
        <ele>359</ele>
        <time>2022-04-09T10:44:31Z</time>
      </trkpt>
      <trkpt lat="45.20609" lon="4.69964">
        <ele>358</ele>
        <time>2022-04-09T10:44:37Z</time>
      </trkpt>
      <trkpt lat="45.2063" lon="4.69883">
        <ele>356</ele>
        <time>2022-04-09T10:44:52Z</time>
      </trkpt>
      <trkpt lat="45.20653" lon="4.69769">
        <ele>360</ele>
        <time>2022-04-09T10:45:11Z</time>
      </trkpt>
      <trkpt lat="45.20669" lon="4.69711">
        <ele>361</ele>
        <time>2022-04-09T10:45:21Z</time>
      </trkpt>
      <trkpt lat="45.20679" lon="4.69631">
        <ele>364</ele>
        <time>2022-04-09T10:45:35Z</time>
      </trkpt>
      <trkpt lat="45.20662" lon="4.69557">
        <ele>368</ele>
        <time>2022-04-09T10:45:48Z</time>
      </trkpt>
      <trkpt lat="45.20643" lon="4.69326">
        <ele>369</ele>
        <time>2022-04-09T10:46:26Z</time>
      </trkpt>
      <trkpt lat="45.20636" lon="4.69299">
        <ele>368</ele>
        <time>2022-04-09T10:46:31Z</time>
      </trkpt>
      <trkpt lat="45.20625" lon="4.6928">
        <ele>368</ele>
        <time>2022-04-09T10:46:35Z</time>
      </trkpt>
      <trkpt lat="45.206" lon="4.69247">
        <ele>368</ele>
        <time>2022-04-09T10:46:43Z</time>
      </trkpt>
      <trkpt lat="45.20591" lon="4.69227">
        <ele>368</ele>
        <time>2022-04-09T10:46:46Z</time>
      </trkpt>
      <trkpt lat="45.20591" lon="4.692">
        <ele>367</ele>
        <time>2022-04-09T10:46:51Z</time>
      </trkpt>
      <trkpt lat="45.20608" lon="4.69129">
        <ele>366</ele>
        <time>2022-04-09T10:47:03Z</time>
      </trkpt>
      <trkpt lat="45.20608" lon="4.69108">
        <ele>367</ele>
        <time>2022-04-09T10:47:07Z</time>
      </trkpt>
      <trkpt lat="45.20601" lon="4.69091">
        <ele>368</ele>
        <time>2022-04-09T10:47:10Z</time>
      </trkpt>
      <trkpt lat="45.2059" lon="4.69082">
        <ele>369</ele>
        <time>2022-04-09T10:47:13Z</time>
      </trkpt>
      <trkpt lat="45.20582" lon="4.69071">
        <ele>370</ele>
        <time>2022-04-09T10:47:15Z</time>
      </trkpt>
      <trkpt lat="45.20569" lon="4.69045">
        <ele>372</ele>
        <time>2022-04-09T10:47:21Z</time>
      </trkpt>
      <trkpt lat="45.20559" lon="4.69017">
        <ele>374</ele>
        <time>2022-04-09T10:47:26Z</time>
      </trkpt>
      <trkpt lat="45.20556" lon="4.6897">
        <ele>377</ele>
        <time>2022-04-09T10:47:34Z</time>
      </trkpt>
      <trkpt lat="45.20557" lon="4.6892">
        <ele>379</ele>
        <time>2022-04-09T10:47:42Z</time>
      </trkpt>
      <trkpt lat="45.20555" lon="4.68908">
        <ele>380</ele>
        <time>2022-04-09T10:47:44Z</time>
      </trkpt>
      <trkpt lat="45.20557" lon="4.6888">
        <ele>380</ele>
        <time>2022-04-09T10:47:49Z</time>
      </trkpt>
      <trkpt lat="45.20541" lon="4.68791">
        <ele>383</ele>
        <time>2022-04-09T10:48:04Z</time>
      </trkpt>
      <trkpt lat="45.20581" lon="4.68764">
        <ele>379</ele>
        <time>2022-04-09T10:48:14Z</time>
      </trkpt>
      <trkpt lat="45.2058" lon="4.68736">
        <ele>380</ele>
        <time>2022-04-09T10:48:19Z</time>
      </trkpt>
      <trkpt lat="45.20565" lon="4.68697">
        <ele>382</ele>
        <time>2022-04-09T10:48:26Z</time>
      </trkpt>
      <trkpt lat="45.20566" lon="4.68665">
        <ele>383</ele>
        <time>2022-04-09T10:48:31Z</time>
      </trkpt>
      <trkpt lat="45.20573" lon="4.68632">
        <ele>383</ele>
        <time>2022-04-09T10:48:37Z</time>
      </trkpt>
      <trkpt lat="45.20624" lon="4.68506">
        <ele>384</ele>
        <time>2022-04-09T10:49:01Z</time>
      </trkpt>
      <trkpt lat="45.20663" lon="4.68486">
        <ele>383</ele>
        <time>2022-04-09T10:49:10Z</time>
      </trkpt>
      <trkpt lat="45.20691" lon="4.68414">
        <ele>378</ele>
        <time>2022-04-09T10:49:24Z</time>
      </trkpt>
      <trkpt lat="45.20702" lon="4.68286">
        <ele>371</ele>
        <time>2022-04-09T10:49:45Z</time>
      </trkpt>
      <trkpt lat="45.20806" lon="4.68109">
        <ele>359</ele>
        <time>2022-04-09T10:50:23Z</time>
      </trkpt>
      <trkpt lat="45.2099" lon="4.6792">
        <ele>370</ele>
        <time>2022-04-09T10:51:16Z</time>
      </trkpt>
      <trkpt lat="45.21133" lon="4.67896">
        <ele>379</ele>
        <time>2022-04-09T10:51:50Z</time>
      </trkpt>
      <trkpt lat="45.21204" lon="4.67815">
        <ele>382</ele>
        <time>2022-04-09T10:52:11Z</time>
      </trkpt>
      <trkpt lat="45.21313" lon="4.67683">
        <ele>388</ele>
        <time>2022-04-09T10:52:45Z</time>
      </trkpt>
      <trkpt lat="45.21327" lon="4.67636">
        <ele>389</ele>
        <time>2022-04-09T10:52:53Z</time>
      </trkpt>
      <trkpt lat="45.21356" lon="4.67362">
        <ele>389</ele>
        <time>2022-04-09T10:53:39Z</time>
      </trkpt>
      <trkpt lat="45.21395" lon="4.67262">
        <ele>388</ele>
        <time>2022-04-09T10:53:57Z</time>
      </trkpt>
      <trkpt lat="45.21433" lon="4.67094">
        <ele>384</ele>
        <time>2022-04-09T10:54:26Z</time>
      </trkpt>
      <trkpt lat="45.21437" lon="4.66982">
        <ele>384</ele>
        <time>2022-04-09T10:54:45Z</time>
      </trkpt>
      <trkpt lat="45.21411" lon="4.66912">
        <ele>387</ele>
        <time>2022-04-09T10:54:58Z</time>
      </trkpt>
      <trkpt lat="45.21371" lon="4.66816">
        <ele>389</ele>
        <time>2022-04-09T10:55:16Z</time>
      </trkpt>
      <trkpt lat="45.21458" lon="4.66772">
        <ele>387</ele>
        <time>2022-04-09T10:55:38Z</time>
      </trkpt>
      <trkpt lat="45.21501" lon="4.66725">
        <ele>387</ele>
        <time>2022-04-09T10:55:50Z</time>
      </trkpt>
      <trkpt lat="45.21578" lon="4.66616">
        <ele>388</ele>
        <time>2022-04-09T10:56:16Z</time>
      </trkpt>
      <trkpt lat="45.21617" lon="4.66486">
        <ele>390</ele>
        <time>2022-04-09T10:56:39Z</time>
      </trkpt>
      <trkpt lat="45.21611" lon="4.66417">
        <ele>390</ele>
        <time>2022-04-09T10:56:50Z</time>
      </trkpt>
      <trkpt lat="45.21608" lon="4.66279">
        <ele>395</ele>
        <time>2022-04-09T10:57:13Z</time>
      </trkpt>
      <trkpt lat="45.21637" lon="4.66173">
        <ele>395</ele>
        <time>2022-04-09T10:57:32Z</time>
      </trkpt>
      <trkpt lat="45.21675" lon="4.66158">
        <ele>393</ele>
        <time>2022-04-09T10:57:41Z</time>
      </trkpt>
      <trkpt lat="45.21585" lon="4.66085">
        <ele>399</ele>
        <time>2022-04-09T10:58:05Z</time>
      </trkpt>
      <trkpt lat="45.21551" lon="4.66063">
        <ele>400</ele>
        <time>2022-04-09T10:58:14Z</time>
      </trkpt>
      <trkpt lat="45.21542" lon="4.66036">
        <ele>400</ele>
        <time>2022-04-09T10:58:19Z</time>
      </trkpt>
      <trkpt lat="45.2155" lon="4.65976">
        <ele>399</ele>
        <time>2022-04-09T10:58:29Z</time>
      </trkpt>
      <trkpt lat="45.21545" lon="4.65941">
        <ele>400</ele>
        <time>2022-04-09T10:58:35Z</time>
      </trkpt>
      <trkpt lat="45.21532" lon="4.65923">
        <ele>400</ele>
        <time>2022-04-09T10:58:39Z</time>
      </trkpt>
      <trkpt lat="45.21557" lon="4.65895">
        <ele>400</ele>
        <time>2022-04-09T10:58:47Z</time>
      </trkpt>
      <trkpt lat="45.2158" lon="4.65887">
        <ele>400</ele>
        <time>2022-04-09T10:58:52Z</time>
      </trkpt>
      <trkpt lat="45.21628" lon="4.65908">
        <ele>400</ele>
        <time>2022-04-09T10:59:04Z</time>
      </trkpt>
      <trkpt lat="45.21657" lon="4.65821">
        <ele>406</ele>
        <time>2022-04-09T10:59:20Z</time>
      </trkpt>
      <trkpt lat="45.21673" lon="4.65752">
        <ele>411</ele>
        <time>2022-04-09T10:59:32Z</time>
      </trkpt>
      <trkpt lat="45.21677" lon="4.65675">
        <ele>417</ele>
        <time>2022-04-09T10:59:44Z</time>
      </trkpt>
      <trkpt lat="45.21685" lon="4.65611">
        <ele>424</ele>
        <time>2022-04-09T10:59:55Z</time>
      </trkpt>
      <trkpt lat="45.21698" lon="4.65587">
        <ele>426</ele>
        <time>2022-04-09T11:00:00Z</time>
      </trkpt>
      <trkpt lat="45.2169" lon="4.65517">
        <ele>430</ele>
        <time>2022-04-09T11:00:12Z</time>
      </trkpt>
      <trkpt lat="45.21688" lon="4.65462">
        <ele>434</ele>
        <time>2022-04-09T11:00:21Z</time>
      </trkpt>
      <trkpt lat="45.21716" lon="4.65087">
        <ele>456</ele>
        <time>2022-04-09T11:01:23Z</time>
      </trkpt>
      <trkpt lat="45.2174" lon="4.64973">
        <ele>462</ele>
        <time>2022-04-09T11:01:42Z</time>
      </trkpt>
      <trkpt lat="45.21766" lon="4.64893">
        <ele>469</ele>
        <time>2022-04-09T11:01:57Z</time>
      </trkpt>
      <trkpt lat="45.21751" lon="4.64822">
        <ele>476</ele>
        <time>2022-04-09T11:02:09Z</time>
      </trkpt>
      <trkpt lat="45.2171" lon="4.64764">
        <ele>477</ele>
        <time>2022-04-09T11:02:22Z</time>
      </trkpt>
      <trkpt lat="45.21738" lon="4.64686">
        <ele>482</ele>
        <time>2022-04-09T11:02:37Z</time>
      </trkpt>
      <trkpt lat="45.21745" lon="4.64639">
        <ele>482</ele>
        <time>2022-04-09T11:02:45Z</time>
      </trkpt>
      <trkpt lat="45.21685" lon="4.64602">
        <ele>479</ele>
        <time>2022-04-09T11:03:00Z</time>
      </trkpt>
      <trkpt lat="45.2166" lon="4.64591">
        <ele>478</ele>
        <time>2022-04-09T11:03:06Z</time>
      </trkpt>
      <trkpt lat="45.21672" lon="4.64515">
        <ele>478</ele>
        <time>2022-04-09T11:03:19Z</time>
      </trkpt>
      <trkpt lat="45.21688" lon="4.64435">
        <ele>481</ele>
        <time>2022-04-09T11:03:33Z</time>
      </trkpt>
      <trkpt lat="45.21628" lon="4.64412">
        <ele>482</ele>
        <time>2022-04-09T11:03:47Z</time>
      </trkpt>
      <trkpt lat="45.21683" lon="4.64186">
        <ele>501</ele>
        <time>2022-04-09T11:04:27Z</time>
      </trkpt>
      <trkpt lat="45.21675" lon="4.64168">
        <ele>504</ele>
        <time>2022-04-09T11:04:30Z</time>
      </trkpt>
      <trkpt lat="45.21677" lon="4.64146">
        <ele>507</ele>
        <time>2022-04-09T11:04:34Z</time>
      </trkpt>
      <trkpt lat="45.21669" lon="4.64118">
        <ele>511</ele>
        <time>2022-04-09T11:04:39Z</time>
      </trkpt>
      <trkpt lat="45.21696" lon="4.64093">
        <ele>515</ele>
        <time>2022-04-09T11:04:46Z</time>
      </trkpt>
      <trkpt lat="45.2176" lon="4.64116">
        <ele>515</ele>
        <time>2022-04-09T11:05:02Z</time>
      </trkpt>
      <trkpt lat="45.21866" lon="4.64102">
        <ele>526</ele>
        <time>2022-04-09T11:05:26Z</time>
      </trkpt>
      <trkpt lat="45.21884" lon="4.64061">
        <ele>533</ele>
        <time>2022-04-09T11:05:34Z</time>
      </trkpt>
      <trkpt lat="45.2193" lon="4.6412">
        <ele>528</ele>
        <time>2022-04-09T11:05:49Z</time>
      </trkpt>
      <trkpt lat="45.21957" lon="4.64163">
        <ele>523</ele>
        <time>2022-04-09T11:05:58Z</time>
      </trkpt>
      <trkpt lat="45.21984" lon="4.64186">
        <ele>522</ele>
        <time>2022-04-09T11:06:06Z</time>
      </trkpt>
      <trkpt lat="45.22009" lon="4.64194">
        <ele>524</ele>
        <time>2022-04-09T11:06:12Z</time>
      </trkpt>
      <trkpt lat="45.22022" lon="4.64212">
        <ele>522</ele>
        <time>2022-04-09T11:06:16Z</time>
      </trkpt>
      <trkpt lat="45.22046" lon="4.6423">
        <ele>521</ele>
        <time>2022-04-09T11:06:22Z</time>
      </trkpt>
      <trkpt lat="45.22123" lon="4.64245">
        <ele>523</ele>
        <time>2022-04-09T11:06:40Z</time>
      </trkpt>
      <trkpt lat="45.22189" lon="4.64237">
        <ele>526</ele>
        <time>2022-04-09T11:06:56Z</time>
      </trkpt>
      <trkpt lat="45.2222" lon="4.64231">
        <ele>525</ele>
        <time>2022-04-09T11:07:03Z</time>
      </trkpt>
      <trkpt lat="45.22304" lon="4.64228">
        <ele>525</ele>
        <time>2022-04-09T11:07:23Z</time>
      </trkpt>
      <trkpt lat="45.22358" lon="4.64233">
        <ele>524</ele>
        <time>2022-04-09T11:07:35Z</time>
      </trkpt>
      <trkpt lat="45.224" lon="4.64219">
        <ele>528</ele>
        <time>2022-04-09T11:07:46Z</time>
      </trkpt>
      <trkpt lat="45.22443" lon="4.64191">
        <ele>531</ele>
        <time>2022-04-09T11:07:57Z</time>
      </trkpt>
      <trkpt lat="45.22505" lon="4.64077">
        <ele>533</ele>
        <time>2022-04-09T11:08:20Z</time>
      </trkpt>
      <trkpt lat="45.22581" lon="4.64095">
        <ele>523</ele>
        <time>2022-04-09T11:08:38Z</time>
      </trkpt>
      <trkpt lat="45.22614" lon="4.63981">
        <ele>516</ele>
        <time>2022-04-09T11:08:59Z</time>
      </trkpt>
      <trkpt lat="45.22633" lon="4.63874">
        <ele>500</ele>
        <time>2022-04-09T11:09:17Z</time>
      </trkpt>
      <trkpt lat="45.22759" lon="4.63972">
        <ele>498</ele>
        <time>2022-04-09T11:09:50Z</time>
      </trkpt>
      <trkpt lat="45.22835" lon="4.64015">
        <ele>495</ele>
        <time>2022-04-09T11:10:09Z</time>
      </trkpt>
      <trkpt lat="45.22915" lon="4.64064">
        <ele>488</ele>
        <time>2022-04-09T11:10:30Z</time>
      </trkpt>
      <trkpt lat="45.22945" lon="4.64119">
        <ele>489</ele>
        <time>2022-04-09T11:10:41Z</time>
      </trkpt>
      <trkpt lat="45.22998" lon="4.64155">
        <ele>485</ele>
        <time>2022-04-09T11:10:55Z</time>
      </trkpt>
      <trkpt lat="45.23161" lon="4.6432">
        <ele>485</ele>
        <time>2022-04-09T11:11:42Z</time>
      </trkpt>
      <trkpt lat="45.23292" lon="4.64311">
        <ele>475</ele>
        <time>2022-04-09T11:12:12Z</time>
      </trkpt>
      <trkpt lat="45.23372" lon="4.64389">
        <ele>458</ele>
        <time>2022-04-09T11:12:35Z</time>
      </trkpt>
      <trkpt lat="45.23372" lon="4.64478">
        <ele>465</ele>
        <time>2022-04-09T11:12:50Z</time>
      </trkpt>
      <trkpt lat="45.23393" lon="4.64661">
        <ele>457</ele>
        <time>2022-04-09T11:13:20Z</time>
      </trkpt>
      <trkpt lat="45.23301" lon="4.64812">
        <ele>456</ele>
        <time>2022-04-09T11:13:53Z</time>
      </trkpt>
      <trkpt lat="45.23289" lon="4.64876">
        <ele>452</ele>
        <time>2022-04-09T11:14:04Z</time>
      </trkpt>
      <trkpt lat="45.2323" lon="4.64918">
        <ele>452</ele>
        <time>2022-04-09T11:14:19Z</time>
      </trkpt>
      <trkpt lat="45.23173" lon="4.65061">
        <ele>453</ele>
        <time>2022-04-09T11:14:46Z</time>
      </trkpt>
      <trkpt lat="45.23318" lon="4.65137">
        <ele>454</ele>
        <time>2022-04-09T11:15:22Z</time>
      </trkpt>
      <trkpt lat="45.23357" lon="4.65196">
        <ele>456</ele>
        <time>2022-04-09T11:15:36Z</time>
      </trkpt>
      <trkpt lat="45.23423" lon="4.65274">
        <ele>456</ele>
        <time>2022-04-09T11:15:56Z</time>
      </trkpt>
      <trkpt lat="45.23505" lon="4.6529">
        <ele>456</ele>
        <time>2022-04-09T11:16:15Z</time>
      </trkpt>
      <trkpt lat="45.23544" lon="4.65271">
        <ele>454</ele>
        <time>2022-04-09T11:16:25Z</time>
      </trkpt>
      <trkpt lat="45.23618" lon="4.65273">
        <ele>449</ele>
        <time>2022-04-09T11:16:42Z</time>
      </trkpt>
      <trkpt lat="45.23638" lon="4.65329">
        <ele>447</ele>
        <time>2022-04-09T11:16:52Z</time>
      </trkpt>
      <trkpt lat="45.2363" lon="4.65384">
        <ele>446</ele>
        <time>2022-04-09T11:17:01Z</time>
      </trkpt>
      <trkpt lat="45.23626" lon="4.65492">
        <ele>441</ele>
        <time>2022-04-09T11:17:19Z</time>
      </trkpt>
      <trkpt lat="45.23627" lon="4.65579">
        <ele>431</ele>
        <time>2022-04-09T11:17:34Z</time>
      </trkpt>
      <trkpt lat="45.23734" lon="4.65598">
        <ele>423</ele>
        <time>2022-04-09T11:17:59Z</time>
      </trkpt>
      <trkpt lat="45.2383" lon="4.65569">
        <ele>414</ele>
        <time>2022-04-09T11:18:22Z</time>
      </trkpt>
      <trkpt lat="45.23863" lon="4.65585">
        <ele>404</ele>
        <time>2022-04-09T11:18:30Z</time>
      </trkpt>
      <trkpt lat="45.23806" lon="4.65635">
        <ele>406</ele>
        <time>2022-04-09T11:18:45Z</time>
      </trkpt>
      <trkpt lat="45.23882" lon="4.65638">
        <ele>393</ele>
        <time>2022-04-09T11:19:03Z</time>
      </trkpt>
      <trkpt lat="45.23925" lon="4.65585">
        <ele>384</ele>
        <time>2022-04-09T11:19:16Z</time>
      </trkpt>
      <trkpt lat="45.23919" lon="4.65651">
        <ele>385</ele>
        <time>2022-04-09T11:19:27Z</time>
      </trkpt>
      <trkpt lat="45.23888" lon="4.6568">
        <ele>385</ele>
        <time>2022-04-09T11:19:36Z</time>
      </trkpt>
      <trkpt lat="45.23758" lon="4.65721">
        <ele>382</ele>
        <time>2022-04-09T11:20:07Z</time>
      </trkpt>
      <trkpt lat="45.23873" lon="4.65757">
        <ele>364</ele>
        <time>2022-04-09T11:20:35Z</time>
      </trkpt>
      <trkpt lat="45.23897" lon="4.65769">
        <ele>359</ele>
        <time>2022-04-09T11:20:41Z</time>
      </trkpt>
      <trkpt lat="45.23934" lon="4.65741">
        <ele>361</ele>
        <time>2022-04-09T11:20:50Z</time>
      </trkpt>
      <trkpt lat="45.23984" lon="4.65728">
        <ele>350</ele>
        <time>2022-04-09T11:21:02Z</time>
      </trkpt>
      <trkpt lat="45.24085" lon="4.65667">
        <ele>336</ele>
        <time>2022-04-09T11:21:28Z</time>
      </trkpt>
      <trkpt lat="45.24087" lon="4.6569">
        <ele>335</ele>
        <time>2022-04-09T11:21:32Z</time>
      </trkpt>
      <trkpt lat="45.2412" lon="4.65674">
        <ele>335</ele>
        <time>2022-04-09T11:21:40Z</time>
      </trkpt>
      <trkpt lat="45.24191" lon="4.65668">
        <ele>342</ele>
        <time>2022-04-09T11:21:57Z</time>
      </trkpt>
      <trkpt lat="45.24206" lon="4.6569">
        <ele>349</ele>
        <time>2022-04-09T11:22:02Z</time>
      </trkpt>
      <trkpt lat="45.24206" lon="4.65751">
        <ele>350</ele>
        <time>2022-04-09T11:22:12Z</time>
      </trkpt>
      <trkpt lat="45.24079" lon="4.65906">
        <ele>352</ele>
        <time>2022-04-09T11:22:51Z</time>
      </trkpt>
      <trkpt lat="45.23999" lon="4.6591">
        <ele>342</ele>
        <time>2022-04-09T11:23:09Z</time>
      </trkpt>
      <trkpt lat="45.23938" lon="4.65987">
        <ele>344</ele>
        <time>2022-04-09T11:23:28Z</time>
      </trkpt>
      <trkpt lat="45.23926" lon="4.66017">
        <ele>344</ele>
        <time>2022-04-09T11:23:34Z</time>
      </trkpt>
      <trkpt lat="45.2399" lon="4.66549">
        <ele>357</ele>
        <time>2022-04-09T11:25:03Z</time>
      </trkpt>
      <trkpt lat="45.23983" lon="4.66566">
        <ele>355</ele>
        <time>2022-04-09T11:25:06Z</time>
      </trkpt>
      <trkpt lat="45.23991" lon="4.66584">
        <ele>355</ele>
        <time>2022-04-09T11:25:10Z</time>
      </trkpt>
      <trkpt lat="45.23987" lon="4.66634">
        <ele>352</ele>
        <time>2022-04-09T11:25:18Z</time>
      </trkpt>
      <trkpt lat="45.24006" lon="4.66727">
        <ele>357</ele>
        <time>2022-04-09T11:25:34Z</time>
      </trkpt>
      <trkpt lat="45.2402" lon="4.66775">
        <ele>360</ele>
        <time>2022-04-09T11:25:42Z</time>
      </trkpt>
      <trkpt lat="45.24021" lon="4.66823">
        <ele>361</ele>
        <time>2022-04-09T11:25:50Z</time>
      </trkpt>
      <trkpt lat="45.24034" lon="4.66848">
        <ele>362</ele>
        <time>2022-04-09T11:25:55Z</time>
      </trkpt>
      <trkpt lat="45.24038" lon="4.66865">
        <ele>362</ele>
        <time>2022-04-09T11:25:58Z</time>
      </trkpt>
      <trkpt lat="45.24002" lon="4.66944">
        <ele>355</ele>
        <time>2022-04-09T11:26:14Z</time>
      </trkpt>
      <trkpt lat="45.24003" lon="4.6696">
        <ele>354</ele>
        <time>2022-04-09T11:26:16Z</time>
      </trkpt>
      <trkpt lat="45.23994" lon="4.66963">
        <ele>352</ele>
        <time>2022-04-09T11:26:19Z</time>
      </trkpt>
      <trkpt lat="45.23985" lon="4.6696">
        <ele>349</ele>
        <time>2022-04-09T11:26:21Z</time>
      </trkpt>
      <trkpt lat="45.23975" lon="4.66967">
        <ele>345</ele>
        <time>2022-04-09T11:26:23Z</time>
      </trkpt>
      <trkpt lat="45.2398" lon="4.66995">
        <ele>345</ele>
        <time>2022-04-09T11:26:28Z</time>
      </trkpt>
      <trkpt lat="45.23989" lon="4.67015">
        <ele>346</ele>
        <time>2022-04-09T11:26:32Z</time>
      </trkpt>
      <trkpt lat="45.2399" lon="4.67063">
        <ele>341</ele>
        <time>2022-04-09T11:26:40Z</time>
      </trkpt>
      <trkpt lat="45.23981" lon="4.67067">
        <ele>339</ele>
        <time>2022-04-09T11:26:42Z</time>
      </trkpt>
      <trkpt lat="45.23976" lon="4.67076">
        <ele>337</ele>
        <time>2022-04-09T11:26:44Z</time>
      </trkpt>
      <trkpt lat="45.23962" lon="4.67075">
        <ele>335</ele>
        <time>2022-04-09T11:26:47Z</time>
      </trkpt>
      <trkpt lat="45.23943" lon="4.67104">
        <ele>333</ele>
        <time>2022-04-09T11:26:54Z</time>
      </trkpt>
      <trkpt lat="45.23948" lon="4.67106">
        <ele>334</ele>
        <time>2022-04-09T11:26:55Z</time>
      </trkpt>
      <trkpt lat="45.23951" lon="4.67122">
        <ele>334</ele>
        <time>2022-04-09T11:26:58Z</time>
      </trkpt>
      <trkpt lat="45.23964" lon="4.67136">
        <ele>334</ele>
        <time>2022-04-09T11:27:01Z</time>
      </trkpt>
      <trkpt lat="45.23992" lon="4.67127">
        <ele>335</ele>
        <time>2022-04-09T11:27:08Z</time>
      </trkpt>
      <trkpt lat="45.24013" lon="4.67134">
        <ele>334</ele>
        <time>2022-04-09T11:27:13Z</time>
      </trkpt>
      <trkpt lat="45.24041" lon="4.67132">
        <ele>333</ele>
        <time>2022-04-09T11:27:20Z</time>
      </trkpt>
      <trkpt lat="45.24058" lon="4.6712">
        <ele>334</ele>
        <time>2022-04-09T11:27:24Z</time>
      </trkpt>
      <trkpt lat="45.24076" lon="4.67119">
        <ele>334</ele>
        <time>2022-04-09T11:27:28Z</time>
      </trkpt>
      <trkpt lat="45.24081" lon="4.6714">
        <ele>331</ele>
        <time>2022-04-09T11:27:32Z</time>
      </trkpt>
      <trkpt lat="45.24057" lon="4.6715">
        <ele>331</ele>
        <time>2022-04-09T11:27:38Z</time>
      </trkpt>
      <trkpt lat="45.24037" lon="4.67169">
        <ele>329</ele>
        <time>2022-04-09T11:27:44Z</time>
      </trkpt>
      <trkpt lat="45.24013" lon="4.67198">
        <ele>328</ele>
        <time>2022-04-09T11:27:51Z</time>
      </trkpt>
      <trkpt lat="45.23991" lon="4.67214">
        <ele>328</ele>
        <time>2022-04-09T11:27:57Z</time>
      </trkpt>
      <trkpt lat="45.2401" lon="4.6724">
        <ele>325</ele>
        <time>2022-04-09T11:28:03Z</time>
      </trkpt>
      <trkpt lat="45.23996" lon="4.67248">
        <ele>325</ele>
        <time>2022-04-09T11:28:06Z</time>
      </trkpt>
      <trkpt lat="45.23973" lon="4.67277">
        <ele>330</ele>
        <time>2022-04-09T11:28:14Z</time>
      </trkpt>
      <trkpt lat="45.23965" lon="4.67281">
        <ele>331</ele>
        <time>2022-04-09T11:28:16Z</time>
      </trkpt>
      <trkpt lat="45.23989" lon="4.67323">
        <ele>332</ele>
        <time>2022-04-09T11:28:24Z</time>
      </trkpt>
      <trkpt lat="45.23996" lon="4.67325">
        <ele>332</ele>
        <time>2022-04-09T11:28:26Z</time>
      </trkpt>
      <trkpt lat="45.24015" lon="4.67367">
        <ele>337</ele>
        <time>2022-04-09T11:28:34Z</time>
      </trkpt>
      <trkpt lat="45.24031" lon="4.67386">
        <ele>339</ele>
        <time>2022-04-09T11:28:39Z</time>
      </trkpt>
      <trkpt lat="45.24028" lon="4.67387">
        <ele>340</ele>
        <time>2022-04-09T11:28:40Z</time>
      </trkpt>
      <trkpt lat="45.24021" lon="4.67381">
        <ele>339</ele>
        <time>2022-04-09T11:28:42Z</time>
      </trkpt>
      <trkpt lat="45.24015" lon="4.67382">
        <ele>340</ele>
        <time>2022-04-09T11:28:43Z</time>
      </trkpt>
      <trkpt lat="45.24021" lon="4.67394">
        <ele>342</ele>
        <time>2022-04-09T11:28:46Z</time>
      </trkpt>
      <trkpt lat="45.24039" lon="4.67404">
        <ele>342</ele>
        <time>2022-04-09T11:28:50Z</time>
      </trkpt>
      <trkpt lat="45.24045" lon="4.67412">
        <ele>342</ele>
        <time>2022-04-09T11:28:52Z</time>
      </trkpt>
      <trkpt lat="45.24033" lon="4.67411">
        <ele>343</ele>
        <time>2022-04-09T11:28:55Z</time>
      </trkpt>
      <trkpt lat="45.24021" lon="4.67414">
        <ele>345</ele>
        <time>2022-04-09T11:28:58Z</time>
      </trkpt>
      <trkpt lat="45.24038" lon="4.67448">
        <ele>349</ele>
        <time>2022-04-09T11:29:05Z</time>
      </trkpt>
      <trkpt lat="45.24076" lon="4.67501">
        <ele>357</ele>
        <time>2022-04-09T11:29:17Z</time>
      </trkpt>
      <trkpt lat="45.24111" lon="4.67557">
        <ele>364</ele>
        <time>2022-04-09T11:29:29Z</time>
      </trkpt>
      <trkpt lat="45.24123" lon="4.67599">
        <ele>370</ele>
        <time>2022-04-09T11:29:37Z</time>
      </trkpt>
      <trkpt lat="45.2414" lon="4.67623">
        <ele>372</ele>
        <time>2022-04-09T11:29:42Z</time>
      </trkpt>
      <trkpt lat="45.24137" lon="4.67671">
        <ele>377</ele>
        <time>2022-04-09T11:29:50Z</time>
      </trkpt>
      <trkpt lat="45.24127" lon="4.67721">
        <ele>380</ele>
        <time>2022-04-09T11:29:59Z</time>
      </trkpt>
      <trkpt lat="45.24084" lon="4.67834">
        <ele>383</ele>
        <time>2022-04-09T11:30:20Z</time>
      </trkpt>
      <trkpt lat="45.24065" lon="4.67901">
        <ele>381</ele>
        <time>2022-04-09T11:30:32Z</time>
      </trkpt>
      <trkpt lat="45.2406" lon="4.67946">
        <ele>380</ele>
        <time>2022-04-09T11:30:39Z</time>
      </trkpt>
      <trkpt lat="45.24058" lon="4.68054">
        <ele>379</ele>
        <time>2022-04-09T11:30:57Z</time>
      </trkpt>
      <trkpt lat="45.24053" lon="4.68133">
        <ele>379</ele>
        <time>2022-04-09T11:31:10Z</time>
      </trkpt>
      <trkpt lat="45.24039" lon="4.68236">
        <ele>382</ele>
        <time>2022-04-09T11:31:27Z</time>
      </trkpt>
      <trkpt lat="45.24007" lon="4.68405">
        <ele>385</ele>
        <time>2022-04-09T11:31:56Z</time>
      </trkpt>
      <trkpt lat="45.23998" lon="4.6851">
        <ele>384</ele>
        <time>2022-04-09T11:32:14Z</time>
      </trkpt>
      <trkpt lat="45.23985" lon="4.68523">
        <ele>384</ele>
        <time>2022-04-09T11:32:17Z</time>
      </trkpt>
      <trkpt lat="45.23947" lon="4.68505">
        <ele>382</ele>
        <time>2022-04-09T11:32:27Z</time>
      </trkpt>
      <trkpt lat="45.23848" lon="4.68284">
        <ele>372</ele>
        <time>2022-04-09T11:33:10Z</time>
      </trkpt>
      <trkpt lat="45.23823" lon="4.68249">
        <ele>367</ele>
        <time>2022-04-09T11:33:18Z</time>
      </trkpt>
      <trkpt lat="45.2381" lon="4.68237">
        <ele>367</ele>
        <time>2022-04-09T11:33:22Z</time>
      </trkpt>
      <trkpt lat="45.23803" lon="4.68212">
        <ele>364</ele>
        <time>2022-04-09T11:33:26Z</time>
      </trkpt>
      <trkpt lat="45.23711" lon="4.68393">
        <ele>378</ele>
        <time>2022-04-09T11:34:03Z</time>
      </trkpt>
      <trkpt lat="45.2364" lon="4.68556">
        <ele>380</ele>
        <time>2022-04-09T11:34:34Z</time>
      </trkpt>
      <trkpt lat="45.23539" lon="4.68887">
        <ele>374</ele>
        <time>2022-04-09T11:35:33Z</time>
      </trkpt>
      <trkpt lat="45.23457" lon="4.69099">
        <ele>378</ele>
        <time>2022-04-09T11:36:13Z</time>
      </trkpt>
      <trkpt lat="45.23344" lon="4.69416">
        <ele>385</ele>
        <time>2022-04-09T11:37:12Z</time>
      </trkpt>
      <trkpt lat="45.23282" lon="4.69475">
        <ele>382</ele>
        <time>2022-04-09T11:37:29Z</time>
      </trkpt>
      <trkpt lat="45.23244" lon="4.69717">
        <ele>391</ele>
        <time>2022-04-09T11:38:10Z</time>
      </trkpt>
      <trkpt lat="45.2326" lon="4.69914">
        <ele>393</ele>
        <time>2022-04-09T11:38:43Z</time>
      </trkpt>
      <trkpt lat="45.23359" lon="4.70217">
        <ele>382</ele>
        <time>2022-04-09T11:39:37Z</time>
      </trkpt>
      <trkpt lat="45.23388" lon="4.70512">
        <ele>385</ele>
        <time>2022-04-09T11:40:26Z</time>
      </trkpt>
      <trkpt lat="45.23401" lon="4.7053">
        <ele>386</ele>
        <time>2022-04-09T11:40:31Z</time>
      </trkpt>
      <trkpt lat="45.23415" lon="4.70639">
        <ele>385</ele>
        <time>2022-04-09T11:40:49Z</time>
      </trkpt>
      <trkpt lat="45.23406" lon="4.70684">
        <ele>384</ele>
        <time>2022-04-09T11:40:57Z</time>
      </trkpt>
      <trkpt lat="45.23369" lon="4.7067">
        <ele>381</ele>
        <time>2022-04-09T11:41:06Z</time>
      </trkpt>
      <trkpt lat="45.23351" lon="4.70677">
        <ele>381</ele>
        <time>2022-04-09T11:41:10Z</time>
      </trkpt>
      <trkpt lat="45.23346" lon="4.70715">
        <ele>383</ele>
        <time>2022-04-09T11:41:16Z</time>
      </trkpt>
      <trkpt lat="45.23307" lon="4.70724">
        <ele>382</ele>
        <time>2022-04-09T11:41:25Z</time>
      </trkpt>
      <trkpt lat="45.23231" lon="4.70842">
        <ele>382</ele>
        <time>2022-04-09T11:41:52Z</time>
      </trkpt>
      <trkpt lat="45.23196" lon="4.70951">
        <ele>381</ele>
        <time>2022-04-09T11:42:11Z</time>
      </trkpt>
      <trkpt lat="45.23145" lon="4.71065">
        <ele>380</ele>
        <time>2022-04-09T11:42:34Z</time>
      </trkpt>
      <trkpt lat="45.23141" lon="4.71232">
        <ele>380</ele>
        <time>2022-04-09T11:43:01Z</time>
      </trkpt>
      <trkpt lat="45.23148" lon="4.71266">
        <ele>379</ele>
        <time>2022-04-09T11:43:07Z</time>
      </trkpt>
      <trkpt lat="45.23147" lon="4.71306">
        <ele>377</ele>
        <time>2022-04-09T11:43:14Z</time>
      </trkpt>
      <trkpt lat="45.2316" lon="4.71341">
        <ele>376</ele>
        <time>2022-04-09T11:43:20Z</time>
      </trkpt>
      <trkpt lat="45.23178" lon="4.71375">
        <ele>377</ele>
        <time>2022-04-09T11:43:27Z</time>
      </trkpt>
      <trkpt lat="45.23165" lon="4.71399">
        <ele>376</ele>
        <time>2022-04-09T11:43:32Z</time>
      </trkpt>
      <trkpt lat="45.23119" lon="4.71415">
        <ele>375</ele>
        <time>2022-04-09T11:43:43Z</time>
      </trkpt>
      <trkpt lat="45.23034" lon="4.71507">
        <ele>379</ele>
        <time>2022-04-09T11:44:08Z</time>
      </trkpt>
      <trkpt lat="45.23012" lon="4.71588">
        <ele>382</ele>
        <time>2022-04-09T11:44:22Z</time>
      </trkpt>
      <trkpt lat="45.22981" lon="4.71633">
        <ele>382</ele>
        <time>2022-04-09T11:44:33Z</time>
      </trkpt>
      <trkpt lat="45.22956" lon="4.71747">
        <ele>385</ele>
        <time>2022-04-09T11:44:52Z</time>
      </trkpt>
      <trkpt lat="45.2292" lon="4.71769">
        <ele>385</ele>
        <time>2022-04-09T11:45:01Z</time>
      </trkpt>
      <trkpt lat="45.22831" lon="4.71791">
        <ele>387</ele>
        <time>2022-04-09T11:45:23Z</time>
      </trkpt>
      <trkpt lat="45.22767" lon="4.71845">
        <ele>390</ele>
        <time>2022-04-09T11:45:40Z</time>
      </trkpt>
      <trkpt lat="45.22682" lon="4.71894">
        <ele>390</ele>
        <time>2022-04-09T11:46:01Z</time>
      </trkpt>
      <trkpt lat="45.22671" lon="4.71852">
        <ele>391</ele>
        <time>2022-04-09T11:46:09Z</time>
      </trkpt>
      <trkpt lat="45.22624" lon="4.71829">
        <ele>393</ele>
        <time>2022-04-09T11:46:20Z</time>
      </trkpt>
      <trkpt lat="45.22552" lon="4.71798">
        <ele>393</ele>
        <time>2022-04-09T11:46:38Z</time>
      </trkpt>
      <trkpt lat="45.22519" lon="4.71778">
        <ele>392</ele>
        <time>2022-04-09T11:46:46Z</time>
      </trkpt>
    </trkseg>
  </trk>
</gpx>